User: anonymous
Location: Voyageurs National Park
(48.5020°N, 92.9292°W)
Time: 19:54:54
(UTC-05:00)
Language:

Terra - Orbit

View from above orbital plane
View from above orbital plane
View from above satellite
View from above satellite

Ground track
Ground track

The orbit data is extracted from the following two-line orbital elements,

1 25994U 99068A   14258.53987752  .00000638  00000-0  15165-3 0  6172
2 25994 098.2039 331.9975 0001618 096.4413 263.6964 14.57123808784220
Epoch (UTC): 15 September 2014 12:57:25
Eccentricity: 0.0001618
inclination: 98.2039°
perigee height: 701 km
apogee height: 703 km
right ascension of ascending node: 331.9975°
argument of perigee: 96.4413°
revolutions per day: 14.57123808
mean anomaly at epoch: 263.6964°
orbit number at epoch: 78422

The dashed part of the orbit path shows where the satellite is in the earth's shadow,  

DLR